Vorticity
-2 13 12 7 17 16 8 5 -4 0 7 5 10 8 9 7 17 12 10 17 14 19 7 5 12 15 16 14 11 11 12 11 10 9 8 8 9 9 9 8 10 11 14 15
4 1 3 5 4 12 21 10 10 12 7 5 25 14 4 10 15 13 13 12 19 12 10 5 9 10 10 9 8 7 7 7 7 8 8 9 9 10 10 9 9 12 13 15
13 16 12 27 32 13 9 3 12 18 15 11 13 19 14 10 9 13 13 14 14 15 9 9 7 6 6 8 7 8 10 9 10 10 9 10 10 11 12 12 12 16 16 16
12 5 10 8 13 8 17 17 23 20 16 12 5 8 10 10 9 11 13 18 21 16 17 15 1 3 5 6 7 6 3 4 6 10 9 9 11 11 12 11 13 20 18 15
3 14 -9 14 22 13 2 3 2 1 6 6 6 13 11 7 9 15 14 18 10 17 20 24 -5 9 6 4 6 2 3 8 9 9 11 11 11 12 14 15 15 21 18 15
12 9 7 13 -1 4 9 5 10 5 5 7 6 11 1 7 9 17 18 18 11 29 16 21 6 8 9 6 5 7 4 4 7 11 11 11 12 13 12 14 16 19 19 15
9 5 16 -0 14 21 9 5 5 -4 -0 3 -0 3 7 6 11 12 19 21 21 19 12 19 22 -8 11 10 7 3 3 4 4 12 12 12 13 14 15 18 18 18 17 16
13 7 22 16 11 -5 -3 -7 0 3 7 7 4 -3 3 6 3 9 14 17 25 17 5 15 26 28 14 9 2 5 4 5 4 12 12 10 12 9 13 14 18 18 20 18
-4 15 0 14 2 -12 -5 -2 -0 7 6 4 4 2 -5 -5 7 0 16 10 17 16 17 7 10 9 10 7 1 5 6 4 8 14 14 -3 5 13 10 15 16 12 8 8
0 17 6 0 2 4 5 6 3 11 17 20 22 24 21 15 12 9 7 15 13 10 14 15 18 17 15 12 8 7 7 10 11 8 14 22 9 11 13 12 11 9 9 8
9 -1 0 10 19 13 11 8 9 5 11 1 -4 11 21 21 9 10 3 13 15 18 9 7 9 9 10 12 12 10 9 9 6 12 44 5 4 12 7 8 8 8 8 7
8 8 6 6 14 15 17 18 19 25 17 7 7 14 6 25 13 10 8 3 6 9 15 19 19 19 19 41 20 34 54 25 1 1 22 16 9 9 4 7 10 9 8 8
0 7 10 9 8 11 17 20 17 16 16 18 19 21 17 15 24 7 9 10 -1 3 -5 4 3 5 6 6 8 10 6 13 37 27 13 32 7 7 8 7 8 8 8 8
6 3 8 8 8 7 8 12 17 15 7 11 11 3 16 19 23 13 4 8 7 4 17 0 7 4 7 7 12 12 13 10 3 26 19 14 27 5 8 8 8 8 7 7
10 9 10 12 11 10 9 10 8 16 18 9 11 14 18 14 15 21 14 6 10 9 10 0 7 6 6 7 9 6 9 11 15 9 22 13 19 37 21 20 26 22 21 23
7 7 8 7 8 7 7 8 9 12 19 12 10 13 7 12 18 32 31 9 12 6 8 6 7 4 7 10 8 8 7 11 8 12 4 10 6 8 10 10 12 11 10 11
3 3 4 4 5 5 8 9 6 5 12 17 15 10 16 9 12 22 19 31 12 13 5 6 7 8 8 13 8 10 7 8 10 8 8 11 11 16 6 3 12 6 9 12
4 3 6 4 8 8 4 6 9 9 7 10 19 14 11 11 26 26 39 31 6 32 4 16 4 8 11 12 10 11 10 11 10 10 9 8 10 8 8 6 4 -3 -3 -2
0 0 -6 2 14 19 11 8 9 8 9 9 13 20 11 8 14 19 12 -0 17 47 8 8 9 16 15 14 14 14 15 14 12 11 11 10 5 9 7 9 8 8 1 7
-9 -8 8 18 20 14 12 8 13 13 11 10 9 14 20 11 23 20 17 15 13 28 16 16 15 15 16 15 16 18 19 21 20 16 14 10 8 7 8 7 7 12 12 12
0 13 19 21 19 15 16 17 17 16 13 15 7 10 16 18 10 13 37 18 24 9 1 5 16 12 8 9 13 14 15 18 19 18 14 12 11 9 8 8 9 8 11 12
18 19 19 20 21 22 18 20 21 19 16 17 10 6 12 24 16 8 13 30 15 13 20 5 13 14 15 16 13 10 8 7 8 9 10 12 14 17 19 18 21 16 10 12
18 18 16 15 17 18 20 22 21 22 19 16 12 9 10 25 22 12 4 17 2 10 17 13 13 15 16 15 15 14 14 13 13 13 13 14 13 14 15 16 17 15 13 14
23 13 12 19 16 15 14 19 25 22 20 13 13 13 8 23 41 25 20 14 12 12 9 17 15 14 13 13 13 13 13 11 12 12 11 11 12 13 14 15 14 13 14 15
20 14 11 5 6 12 20 11 21 25 23 10 16 17 10 15 19 15 23 29 16 10 11 10 12 12 12 12 13 12 12 12 12 12 12 12 13 13 13 13 13 13 15 16
18 12 9 9 8 7 9 16 10 26 26 20 13 18 8 15 22 23 31 30 3 6 13 12 10 10 12 12 12 12 12 12 12 12 11 11 11 12 12 13 12 11 11 12
15 11 13 -2 30 4 3 10 5 9 26 29 16 17 10 13 27 23 15 26 29 0 -0 10 10 12 11 11 11 11 11 11 11 11 11 11 11 11 12 12 13 12 11 11
Height
3049 3050 3051 3053 3056 3059 3060 3060 3063 3065 3065 3064 3064 3063 3060 3058 3057 3056 3055 3054 3054 3055 3055 3055 3056 3057 3058 3059 3062 3064 3065 3067 3068 3068 3069 3068 3068 3067 3066 3065 3064 3062 3061 3061
3050 3051 3051 3051 3052 3053 3056 3057 3058 3059 3059 3060 3059 3056 3055 3053 3051 3049 3048 3049 3049 3050 3050 3051 3052 3054 3055 3056 3057 3059 3060 3061 3061 3062 3062 3061 3061 3060 3058 3057 3056 3054 3052 3052
3050 3050 3050 3050 3048 3050 3051 3052 3054 3055 3057 3054 3051 3050 3050 3048 3047 3044 3043 3042 3043 3044 3046 3046 3048 3049 3050 3052 3053 3054 3055 3056 3056 3056 3055 3054 3052 3052 3051 3050 3048 3047 3045 3045
3049 3049 3050 3047 3046 3047 3048 3049 3048 3049 3050 3049 3047 3046 3047 3044 3041 3039 3037 3036 3036 3037 3039 3042 3042 3043 3045 3047 3048 3049 3050 3050 3050 3049 3047 3046 3046 3045 3044 3042 3040 3038 3038 3037
3049 3048 3047 3045 3045 3046 3046 3046 3045 3045 3045 3044 3044 3044 3043 3039 3036 3033 3031 3030 3029 3029 3031 3033 3036 3038 3040 3041 3043 3044 3044 3044 3043 3042 3041 3040 3039 3038 3036 3034 3033 3032 3032 3032
3047 3047 3044 3044 3043 3044 3045 3045 3043 3043 3042 3041 3040 3039 3038 3034 3031 3028 3025 3024 3023 3023 3025 3027 3029 3031 3034 3035 3037 3039 3039 3038 3037 3036 3035 3034 3032 3031 3030 3028 3027 3027 3027 3027
3045 3045 3043 3040 3041 3041 3044 3044 3039 3039 3039 3037 3036 3034 3031 3029 3027 3024 3021 3019 3017 3018 3020 3021 3023 3025 3028 3030 3032 3032 3032 3032 3031 3030 3029 3028 3026 3026 3024 3023 3022 3023 3023 3024
3043 3043 3042 3038 3039 3041 3039 3037 3036 3035 3034 3032 3031 3029 3027 3025 3024 3021 3019 3016 3013 3014 3015 3017 3017 3019 3022 3024 3025 3025 3026 3025 3025 3024 3023 3022 3022 3021 3021 3020 3019 3020 3021 3022
3042 3040 3037 3037 3037 3036 3034 3033 3032 3030 3029 3026 3024 3023 3022 3021 3020 3018 3015 3013 3011 3011 3011 3013 3014 3015 3017 3017 3019 3019 3018 3018 3017 3017 3017 3015 3016 3017 3017 3016 3017 3018 3019 3021
3036 3034 3034 3034 3033 3031 3029 3027 3025 3023 3021 3019 3016 3015 3014 3013 3013 3012 3011 3009 3008 3007 3007 3007 3008 3009 3009 3010 3011 3011 3010 3010 3009 3009 3009 3009 3010 3012 3012 3013 3014 3015 3016 3018
3032 3031 3031 3030 3029 3026 3023 3020 3017 3015 3013 3011 3008 3007 3004 3004 3005 3005 3004 3004 3003 3002 3002 3002 3002 3003 3003 3003 3002 3002 3001 3001 3002 3001 3000 3001 3003 3006 3007 3008 3010 3011 3012 3013
3032 3030 3029 3028 3024 3020 3017 3013 3011 3008 3006 3005 3001 2998 2997 2995 2996 2997 2998 2998 2998 2998 2997 2996 2997 2997 2996 2994 2995 2992 2990 2992 2994 2994 2994 2994 2996 2999 3002 3004 3005 3006 3007 3009
3026 3026 3024 3021 3018 3013 3010 3007 3004 3001 2999 2996 2995 2991 2989 2988 2988 2989 2990 2991 2991 2991 2991 2990 2991 2990 2990 2989 2989 2988 2987 2986 2985 2985 2986 2988 2989 2993 2996 2997 2999 3001 3002 3003
3019 3015 3016 3013 3010 3007 3003 3000 2998 2996 2993 2990 2986 2984 2982 2979 2979 2980 2981 2981 2983 2984 2984 2983 2984 2984 2983 2983 2983 2982 2981 2981 2981 2979 2980 2982 2983 2985 2988 2990 2992 2994 2995 2996
3016 3014 3011 3008 3004 3001 2997 2993 2989 2986 2984 2983 2981 2977 2973 2972 2970 2970 2971 2972 2973 2974 2976 2976 2976 2977 2976 2977 2977 2977 2977 2976 2976 2976 2976 2977 2979 2980 2981 2984 2985 2987 2988 2989
3012 3010 3007 3004 3001 2996 2992 2988 2983 2980 2976 2973 2970 2968 2966 2963 2961 2959 2959 2961 2964 2965 2966 2968 2969 2969 2969 2969 2970 2970 2971 2971 2971 2971 2972 2973 2975 2976 2978 2979 2980 2981 2982 2983
3005 3004 3001 2998 2995 2991 2987 2983 2978 2973 2969 2966 2963 2960 2956 2954 2952 2949 2947 2948 2951 2954 2956 2958 2959 2960 2961 2961 2961 2963 2963 2965 2965 2965 2966 2968 2969 2970 2972 2973 2974 2974 2975 2975
3001 2999 2995 2991 2988 2984 2981 2977 2972 2968 2964 2960 2955 2952 2949 2945 2942 2939 2937 2939 2941 2942 2946 2947 2950 2951 2951 2952 2953 2954 2955 2956 2957 2958 2960 2962 2963 2964 2965 2966 2966 2967 2968 2967
2993 2990 2988 2985 2980 2976 2972 2969 2965 2961 2957 2953 2949 2944 2941 2938 2935 2933 2933 2932 2933 2932 2937 2938 2941 2942 2942 2943 2944 2945 2946 2947 2949 2950 2952 2955 2955 2956 2957 2958 2958 2959 2959 2959
2988 2984 2978 2974 2971 2966 2961 2958 2954 2952 2949 2945 2941 2937 2933 2930 2928 2926 2926 2925 2925 2926 2928 2931 2933 2933 2934 2935 2936 2936 2938 2939 2940 2942 2944 2947 2949 2950 2950 2951 2950 2950 2950 2949
2978 2973 2968 2963 2959 2955 2951 2947 2944 2942 2939 2936 2933 2930 2926 2923 2919 2917 2917 2916 2917 2918 2919 2923 2925 2926 2927 2928 2929 2930 2931 2932 2933 2935 2937 2939 2940 2941 2941 2941 2940 2940 2939 2938
2967 2962 2957 2953 2948 2944 2940 2936 2933 2930 2927 2926 2924 2921 2919 2916 2914 2913 2912 2911 2911 2913 2912 2916 2919 2919 2921 2922 2923 2924 2925 2926 2928 2929 2930 2931 2932 2932 2932 2931 2931 2930 2930 2929
2958 2953 2949 2945 2941 2936 2932 2927 2923 2920 2918 2916 2915 2913 2911 2909 2907 2907 2908 2908 2908 2909 2910 2912 2913 2914 2915 2916 2917 2918 2919 2920 2921 2923 2924 2924 2925 2924 2924 2923 2923 2923 2922 2921
2951 2947 2943 2939 2934 2930 2925 2920 2916 2912 2910 2908 2906 2905 2903 2902 2900 2900 2901 2902 2903 2904 2907 2907 2908 2909 2910 2911 2912 2913 2914 2915 2916 2917 2918 2918 2918 2918 2917 2917 2917 2916 2915 2913
2944 2941 2938 2934 2930 2926 2921 2915 2910 2905 2903 2901 2899 2898 2896 2894 2893 2893 2893 2895 2896 2900 2902 2903 2904 2904 2906 2907 2908 2908 2909 2911 2912 2912 2912 2913 2912 2912 2912 2911 2911 2910 2909 2907
2938 2935 2932 2930 2926 2922 2917 2912 2907 2902 2898 2895 2894 2892 2890 2887 2886 2886 2887 2889 2892 2895 2897 2898 2899 2901 2902 2903 2904 2905 2906 2906 2907 2907 2908 2908 2908 2907 2907 2906 2906 2905 2904 2904
2931 2929 2926 2925 2922 2918 2914 2909 2904 2899 2895 2892 2889 2887 2885 2883 2882 2882 2881 2882 2886 2889 2892 2894 2895 2897 2898 2899 2900 2901 2901 2902 2902 2903 2904 2904 2904 2903 2903 2902 2901 2900 2900 2900